Location: Sternwarte Stuttgart
(48.7670°N, 9.1830°E)
Time: 12:46:25
(UTC+02:00)

CZ-4C R/B - Pass Details

Date: 24 January 2019
Orbit: 654 x 1348 km, 63.4° (Epoch: 17 October)

Event Time Altitude Azimuth Distance (km) Brightness Sun altitude
Exits shadow 07:15:45 - 313° (NW) 2,872 4.4 -8.0°
Reaches altitude 10° 07:16:34 10° 318° (NW) 2,659 4.2 -7.8°
Maximum altitude 07:21:31 23° 10° (N) 2,041 4.1 -7.1°
Drops below altitude 10° 07:27:08 10° 61° (ENE) 3,055 5.7 -6.2°
Sets 07:30:45 0° 75° (ENE) 4,131 6.7 -5.7°
